Location: Platte
(43.3870°N, 98.8440°W)
Time: 11:26:13
(UTC-06:00)

Daily predictions for brighter satellites

Satellite Brightness Start Highest point End
(mag) Time Altitude Azimuth Time Altitude Azimuth Time Altitude Azimuth
Cosmos 2297 3.9 17:57:39 10° NNW 18:03:16 55° ENE 18:08:53 10° SE
USA 215 3.9 17:58:58 10° E 18:04:51 37° NNE 18:10:44 10° NW
Cosmos 1484 Rocket 3.3 18:01:20 10° SE 18:05:02 39° ENE 18:08:48 10° N
IDEFIX/ARIANE 42P 2.8 18:00:03 10° S 18:05:16 80° WSW 18:10:33 10° NNW
Cosmos 1634 Rocket 4.1 18:00:59 10° N 18:07:11 87° W 18:13:21 10° S
Cosmos 1340 Rocket 3.1 18:06:14 10° SSE 18:10:00 44° E 18:13:45 10° NNE
Cosmos 1707 Rocket 4.3 18:06:16 10° NNE 18:10:07 30° ENE 18:13:58 10° SE
CZ-2C R/B 2.8 18:06:59 10° S 18:11:54 69° WSW 18:16:40 10° NNW
YAOGAN 1 2.6 18:08:36 10° SSE 18:12:56 88° W 18:17:17 10° NNW
COSMO-SKYMED 1 3.2 18:10:00 10° NNE 18:14:01 36° E 18:18:00 10° SSE
SMAP 3.5 18:13:51 10° S 18:18:28 68° WSW 18:23:08 10° NNW
COSMOS 2441 4.3 18:14:04 10° SSE 18:18:55 79° ENE 18:23:46 10° N
CORIOLIS 4.4 18:16:01 10° S 18:21:22 77° WSW 18:26:46 10° NNW
Cosmos 1666 Rocket 4.3 18:18:10 10° SSE 18:22:00 31° E 18:25:53 10° NNE
ATLAS 5 CENTAUR R/B 4.0 18:23:21 10° N 18:26:29 15° NNE 18:29:30 11° NE
Lacrosse 4 Rocket 2.0 18:23:12 10° NNW 18:26:53 32° NE 18:30:32 10° ESE
Cosmos 1626 2.6 18:26:00 10° SSE 18:29:29 39° E 18:33:00 10° NNE
CENTAUR R/B 4.1 18:27:24 10° W 18:32:51 28° NNW 18:38:55 10° NNE
Cosmos 1151 Rocket 4.4 18:31:39 10° NNW 18:35:43 42° W 18:39:47 10° SSW
Resurs 01 Rocket 3.0 18:36:09 10° ESE 18:39:14 19° ENE 18:42:19 10° NNE
Cosmos 1184 Rocket 3.4 18:36:55 10° SSE 18:40:00 36° E 18:43:01 11° NNE
Cosmos 2058 3.4 18:37:42 10° SSW 18:41:46 62° W 18:45:51 10° N
Cosmos 1726 4.2 18:38:31 10° NNW 18:41:54 31° W 18:45:15 10° SSW
SKYMED 3 4.5 18:39:47 10° NNE 18:44:09 77° ESE 18:48:29 10° S
Cosmos 1943 Rocket 3.9 18:42:05 10° NNE 18:44:14 12° NE 18:44:33 12° NE
Cosmos 2219 Rocket 4.0 18:41:06 10° WSW 18:45:54 28° NW 18:50:42 10° N
USA 229 DEB 4.0 18:39:31 10° S 18:46:03 49° ESE 18:51:58 13° NE
USA 229 4.0 18:39:38 10° S 18:46:09 49° ESE 18:52:02 13° NE
FREGAT/IRIS 3.4 18:46:24 10° SE 18:49:07 29° ENE 18:51:50 10° N
Iridium 4 Rocket 3.7 18:46:53 10° SSE 18:50:44 31° E 18:54:28 10° NNE
Lacrosse 5 rocket 4.2 18:49:08 10° W 18:51:44 17° SW 18:54:23 10° SSW
Cosmos 2279 Rocket 4.4 18:46:00 10° NNW 18:52:10 67° W 18:58:20 10° S
Cosmos 1461 3.4 18:48:04 10° SW 18:52:11 57° NW 18:55:55 12° NNE
Cosmos 1242 Rocket 3.2 18:50:08 10° NNE 18:53:16 29° ENE 18:56:21 10° SE
Spot 2 Rocket 4.3 18:49:15 10° ESE 18:53:30 28° ENE 18:57:45 10° N
Tiangong 1 2.9 18:51:37 10° SSW 18:53:38 17° SSE 18:54:17 16° SE
CZ-4C R/B 4.2 18:49:12 10° NNW 18:53:43 18° NNE 18:56:24 15° NE
Cosmos 304 Rocket 4.3 18:49:51 10° SSW 18:54:37 61° WNW 18:59:23 10° NNE
Cosmos 1470 Rocket 4.3 18:51:26 10° SSE 18:55:10 29° E 18:57:06 20° NE
Cosmos 1455 2.0 18:51:51 10° N 18:55:39 73° E 18:59:28 10° SSE
Cosmos 1603 4.1 18:50:33 10° S 18:55:42 39° ESE 18:59:29 17° NE
Cosmos 2333 Rocket 3.9 18:52:10 10° WSW 18:57:03 29° NW 19:01:58 10° N
DMSP B5D1-3 4.4 18:52:52 10° NNE 18:57:59 75° ESE 19:03:05 10° S
BREEZE-M DEB (TANK) 1.8 18:56:21 10° W 18:58:45 46° NNW 18:59:20 34° NNE
Aureole 1 Rocket 4.0 18:54:01 10° S 18:59:32 63° ESE 19:06:47 10° NNE
Cosmos 1805 Rocket 3.9 18:55:29 10° SSW 18:59:55 69° W 19:04:24 10° N
Cosmos 1356 Rocket 3.3 18:56:56 10° S 19:00:55 86° W 19:04:56 10° N
SKYMED 2 3.9 18:57:50 10° N 19:02:10 68° WNW 19:06:28 10° SSW
Cosmos 2242 Rocket 3.5 19:02:34 10° N 19:06:59 64° E 19:11:24 10° SSE
Coronas F rocket 1.0 19:06:07 10° S 19:08:11 62° SSE 19:08:11 62° SSE
Sich 1 3.1 19:06:07 10° S 19:10:34 82° W 19:15:00 10° N
Cosmos 1538 Rocket 4.3 19:06:55 10° SSW 19:12:11 68° WNW 19:17:34 10° NNE
Cosmos 1703 4.4 19:08:39 10° SSW 19:12:23 44° WNW 19:16:08 10° N
Nadezhda 4 Rocket 4.0 19:06:12 10° S 19:12:28 88° E 19:18:50 10° N
BREEZE M DEB (TANK) 2.8 19:10:46 10° WNW 19:12:57 31° SW 19:13:44 23° S
Cosmos 2026 Rocket 4.3 19:10:30 10° SSE 19:16:09 39° E 19:21:46 10° NNE
Cosmos 923 Rocket 3.9 19:14:49 10° S 19:19:57 66° ESE 19:23:24 21° NNE
SJ-6B 2.8 19:16:02 10° SSE 19:20:07 88° ENE 19:24:18 10° NNW
Cosmos 1633 Rocket 3.3 19:18:07 10° SSW 19:22:30 69° W 19:26:53 10° N
Cosmos 2237 Rocket 4.3 19:21:30 10° WSW 19:25:55 23° NW 19:30:23 10° N
Cosmos 1680 Rocket 3.5 19:20:51 10° S 19:25:57 57° ESE 19:28:12 32° NE
Cosmos 2369 Rocket 2.5 19:22:38 10° NNW 19:28:02 42° ENE 19:28:57 39° E
Cosmos 972 Rocket 4.3 19:23:52 10° N 19:29:00 48° ENE 19:31:23 31° ESE
BREEZE-M DEB (TANK) 3.5 19:28:07 10° SW 19:29:02 26° SSW 19:29:02 26° SSW
SL-16 R/B 3.4 19:29:30 10° SW 19:34:48 40° WNW 19:40:08 10° NNE
Lacrosse 5 3.4 19:31:35 10° NNW 19:35:31 22° NNE 19:35:34 22° NNE
Cosmos 1092 Rocket 4.0 19:29:36 10° S 19:35:56 85° W 19:42:20 10° N
NOSS 3-1 (C) 3.7 19:31:42 10° S 19:37:04 41° ESE 19:37:28 41° ESE
Cosmos 1867 4.1 19:32:11 10° NNW 19:37:08 39° NE 19:37:08 39° NE
Abrixas 4.5 19:36:15 10° WNW 19:37:53 23° NW 19:37:53 23° NW
Cosmos 1553 Rocket 4.3 19:34:00 10° N 19:39:22 41° ENE 19:39:22 41° ENE
ALOS 2.1 19:36:03 10° SSE 19:40:43 82° ENE 19:45:24 10° N
Cosmos 1862 Rocket 3.4 19:41:12 10° N 19:45:36 87° W 19:49:57 10° S
BREEZE-M DEB (TANK) 3.7 19:43:26 10° W 19:44:55 33° WNW 19:44:55 33° WNW
Cosmos 2084 Rocket 4.1 19:43:27 10° NNW 19:45:57 38° NNW 19:45:57 38° NNW
USA 215 3.2 19:44:05 33° SE 19:47:23 86° NE 19:53:59 10° NW
ATLAS 3B R/B 4.1 19:42:29 10° NNW 19:47:24 19° NNE 19:47:34 19° NNE
Cosmos 292 Rocket 3.9 19:46:37 10° SSW 19:51:21 71° WNW 19:53:00 40° N
FENGYUN 3A 3.6 19:48:01 10° SSE 19:53:23 82° WSW 19:58:48 10° NNW
CZ-3A R/B 3.4 19:49:19 10° WNW 19:53:49 57° SW 20:00:52 10° SSE
Meteor 1-26 Rocket 4.5 19:52:07 10° N 19:56:33 49° NNE 19:56:33 49° NNE
Cosmos 2195 Rocket 4.4 19:51:57 10° S 19:58:04 87° W 20:04:17 10° N
Cosmos 2112 Rocket 4.0 19:57:36 10° SSW 20:02:49 80° WNW 20:03:43 61° N
Lacrosse 4 Rocket 3.6 20:02:09 10° NW 20:05:26 24° WSW 20:08:42 10° SSW
Meteor 2-20 Rocket 4.3 20:00:45 10° S 20:06:18 67° SE 20:06:18 67° SE
Cosmos 1943 3.3 20:05:49 10° SSW 20:10:29 60° S 20:10:29 60° S
ATLAS 5 CENTAUR R/B 3.1 20:06:58 10° NNW 20:11:05 38° N 20:11:05 38° N
Resurs 01 Rocket 2.6 20:12:21 18° SSW 20:15:22 46° W 20:19:40 10° NNW
Cosmos 1943 Rocket 3.6 20:23:38 10° NNW 20:26:07 27° N 20:26:07 27° N
Cosmos 1655 Rocket 4.5 20:31:09 10° SSW 20:37:25 60° W 20:43:42 10° N
CZ-4C R/B 3.6 20:37:08 10° NNW 20:41:36 38° N 20:41:36 38° N
Cosmos 2369 Rocket 4.0 21:07:01 10° NW 21:10:49 28° W 21:10:49 28° W
